Year,Month,Day,Hour,Minute,Value (Times are PST for barometer in hPa)
2016,03,12,00,00,995.16
2016,03,12,00,01,995.16
2016,03,12,00,02,995.16
2016,03,12,00,03,995.16
2016,03,12,00,04,995.16
2016,03,12,00,05,995.16
2016,03,12,00,06,995.16
2016,03,12,00,07,995.16
2016,03,12,00,08,995.16
2016,03,12,00,09,995.16
2016,03,12,00,10,995.16
2016,03,12,00,11,995.16
2016,03,12,00,12,995.16
2016,03,12,00,13,995.16
2016,03,12,00,14,995.16
2016,03,12,00,15,995.19
2016,03,12,00,16,995.19
2016,03,12,00,17,995.19
2016,03,12,00,18,995.19
2016,03,12,00,19,995.19
2016,03,12,00,20,995.19
2016,03,12,00,21,995.19
2016,03,12,00,22,995.19
2016,03,12,00,23,995.19
2016,03,12,00,24,995.19
2016,03,12,00,25,995.19
2016,03,12,00,26,995.19
2016,03,12,00,27,995.19
2016,03,12,00,28,995.19
2016,03,12,00,29,995.19
2016,03,12,00,30,995.16
2016,03,12,00,31,995.16
2016,03,12,00,32,995.16
2016,03,12,00,33,995.16
2016,03,12,00,34,995.16
2016,03,12,00,35,995.16
2016,03,12,00,36,995.16
2016,03,12,00,37,995.16
2016,03,12,00,38,995.16
2016,03,12,00,39,995.16
2016,03,12,00,40,995.16
2016,03,12,00,41,995.16
2016,03,12,00,42,995.16
2016,03,12,00,43,995.16
2016,03,12,00,44,995.16
2016,03,12,00,45,995.19
2016,03,12,00,46,995.19
2016,03,12,00,47,995.19
2016,03,12,00,48,995.19
2016,03,12,00,49,995.19
2016,03,12,00,50,995.19
2016,03,12,00,51,995.19
2016,03,12,00,52,995.19
2016,03,12,00,53,995.19
2016,03,12,00,54,995.19
2016,03,12,00,55,995.19
2016,03,12,00,56,995.19
2016,03,12,00,57,995.19
2016,03,12,00,58,995.19
2016,03,12,00,59,995.20
2016,03,12,01,00,995.46
2016,03,12,01,01,995.46
2016,03,12,01,02,995.46
2016,03,12,01,03,995.46
2016,03,12,01,04,995.46
2016,03,12,01,05,995.46
2016,03,12,01,06,995.46
2016,03,12,01,07,995.46
2016,03,12,01,08,995.46
2016,03,12,01,09,995.46
2016,03,12,01,10,995.46
2016,03,12,01,11,995.46
2016,03,12,01,12,995.46
2016,03,12,01,13,995.46
2016,03,12,01,14,995.46
2016,03,12,01,15,995.12
2016,03,12,01,16,995.12
2016,03,12,01,17,995.12
2016,03,12,01,18,995.12
2016,03,12,01,19,995.12
2016,03,12,01,20,995.12
2016,03,12,01,21,995.12
2016,03,12,01,22,995.12
2016,03,12,01,23,995.12
2016,03,12,01,24,995.12
2016,03,12,01,25,995.12
2016,03,12,01,26,995.12
2016,03,12,01,27,995.12
2016,03,12,01,28,995.12
2016,03,12,01,29,995.12
2016,03,12,01,30,995.29
2016,03,12,01,31,995.29
2016,03,12,01,32,995.29
2016,03,12,01,33,995.29
2016,03,12,01,34,995.29
2016,03,12,01,35,995.29
2016,03,12,01,36,995.29
2016,03,12,01,37,995.29
2016,03,12,01,38,995.29
2016,03,12,01,39,995.29
2016,03,12,01,40,995.29
2016,03,12,01,41,995.29
2016,03,12,01,42,995.29
2016,03,12,01,43,995.29
2016,03,12,01,44,995.29
2016,03,12,01,45,995.23
2016,03,12,01,46,995.23
2016,03,12,01,47,995.23
2016,03,12,01,48,995.23
2016,03,12,01,49,995.23
2016,03,12,01,50,995.23
2016,03,12,01,51,995.23
2016,03,12,01,52,995.23
2016,03,12,01,53,995.23
2016,03,12,01,54,995.23
2016,03,12,01,55,995.23
2016,03,12,01,56,995.23
2016,03,12,01,57,995.23
2016,03,12,01,58,995.23
2016,03,12,01,59,995.23
2016,03,12,02,00,995.46
2016,03,12,02,01,995.46
2016,03,12,02,02,995.46
2016,03,12,02,03,995.46
2016,03,12,02,04,995.46
2016,03,12,02,05,995.46
2016,03,12,02,06,995.46
2016,03,12,02,07,995.46
2016,03,12,02,08,995.46
2016,03,12,02,09,995.46
2016,03,12,02,10,995.46
2016,03,12,02,11,995.46
2016,03,12,02,12,995.46
2016,03,12,02,13,995.46
2016,03,12,02,14,995.46
2016,03,12,02,15,995.16
2016,03,12,02,16,995.16
2016,03,12,02,17,995.16
2016,03,12,02,18,995.16
2016,03,12,02,19,995.16
2016,03,12,02,20,995.16
2016,03,12,02,21,995.16
2016,03,12,02,22,995.16
2016,03,12,02,23,995.16
2016,03,12,02,24,995.16
2016,03,12,02,25,995.16
2016,03,12,02,26,995.16
2016,03,12,02,27,995.16
2016,03,12,02,28,995.16
2016,03,12,02,29,995.16
2016,03,12,02,30,995.12
2016,03,12,02,31,995.12
2016,03,12,02,32,995.12
2016,03,12,02,33,995.12
2016,03,12,02,34,995.12
2016,03,12,02,35,995.12
2016,03,12,02,36,995.12
2016,03,12,02,37,995.12
2016,03,12,02,38,995.12
2016,03,12,02,39,995.12
2016,03,12,02,40,995.12
2016,03,12,02,41,995.12
2016,03,12,02,42,995.12
2016,03,12,02,43,995.12
2016,03,12,02,44,995.13
2016,03,12,02,45,995.40
2016,03,12,02,46,995.40
2016,03,12,02,47,995.40
2016,03,12,02,48,995.40
2016,03,12,02,49,995.40
2016,03,12,02,50,995.40
2016,03,12,02,51,995.40
2016,03,12,02,52,995.40
2016,03,12,02,53,995.40
2016,03,12,02,54,995.40
2016,03,12,02,55,995.40
2016,03,12,02,56,995.40
2016,03,12,02,57,995.40
2016,03,12,02,58,995.40
2016,03,12,02,59,995.40
2016,03,12,03,00,995.63
2016,03,12,03,01,995.63
2016,03,12,03,02,995.63
2016,03,12,03,03,995.63
2016,03,12,03,04,995.63
2016,03,12,03,05,995.63
2016,03,12,03,06,995.63
2016,03,12,03,07,995.63
2016,03,12,03,08,995.63
2016,03,12,03,09,995.63
2016,03,12,03,10,995.63
2016,03,12,03,11,995.63
2016,03,12,03,12,995.63
2016,03,12,03,13,995.63
2016,03,12,03,14,995.63
2016,03,12,03,15,995.63
2016,03,12,03,16,995.63
2016,03,12,03,17,995.63
2016,03,12,03,18,995.63
2016,03,12,03,19,995.63
2016,03,12,03,20,995.63
2016,03,12,03,21,995.63
2016,03,12,03,22,995.63
2016,03,12,03,23,995.63
2016,03,12,03,24,995.63
2016,03,12,03,25,995.63
2016,03,12,03,26,995.63
2016,03,12,03,27,995.63
2016,03,12,03,28,995.63
2016,03,12,03,29,995.63
2016,03,12,03,30,995.23
2016,03,12,03,31,995.23
2016,03,12,03,32,995.23
2016,03,12,03,33,995.23
2016,03,12,03,34,995.23
2016,03,12,03,35,995.23
2016,03,12,03,36,995.23
2016,03,12,03,37,995.23
2016,03,12,03,38,995.23
2016,03,12,03,39,995.23
2016,03,12,03,40,995.23
2016,03,12,03,41,995.23
2016,03,12,03,42,995.23
2016,03,12,03,43,995.23
2016,03,12,03,44,995.23
2016,03,12,03,45,995.12
2016,03,12,03,46,995.12
2016,03,12,03,47,995.12
2016,03,12,03,48,995.12
2016,03,12,03,49,995.12
2016,03,12,03,50,995.12
2016,03,12,03,51,995.12
2016,03,12,03,52,995.12
2016,03,12,03,53,995.12
2016,03,12,03,54,995.12
2016,03,12,03,55,995.12
2016,03,12,03,56,995.12
2016,03,12,03,57,995.12
2016,03,12,03,58,995.12
2016,03,12,03,59,995.12
2016,03,12,04,00,995.09
2016,03,12,04,01,995.09
2016,03,12,04,02,995.09
2016,03,12,04,03,995.09
2016,03,12,04,04,995.09
2016,03,12,04,05,995.09
2016,03,12,04,06,995.09
2016,03,12,04,07,995.09
2016,03,12,04,08,995.09
2016,03,12,04,09,995.09
2016,03,12,04,10,995.09
2016,03,12,04,11,995.09
2016,03,12,04,12,995.09
2016,03,12,04,13,995.09
2016,03,12,04,14,995.09
2016,03,12,04,15,994.99
2016,03,12,04,16,994.99
2016,03,12,04,17,994.99
2016,03,12,04,18,994.99
2016,03,12,04,19,994.99
2016,03,12,04,20,994.99
2016,03,12,04,21,994.99
2016,03,12,04,22,994.99
2016,03,12,04,23,994.99
2016,03,12,04,24,994.99
2016,03,12,04,25,994.99
2016,03,12,04,26,994.99
2016,03,12,04,27,994.99
2016,03,12,04,28,994.99
2016,03,12,04,29,994.99
2016,03,12,04,30,994.62
2016,03,12,04,31,994.62
2016,03,12,04,32,994.62
2016,03,12,04,33,994.62
2016,03,12,04,34,994.62
2016,03,12,04,35,994.62
2016,03,12,04,36,994.62
2016,03,12,04,37,994.62
2016,03,12,04,38,994.62
2016,03,12,04,39,994.62
2016,03,12,04,40,994.62
2016,03,12,04,41,994.62
2016,03,12,04,42,994.62
2016,03,12,04,43,994.62
2016,03,12,04,44,994.62
2016,03,12,04,45,995.06
2016,03,12,04,46,995.06
2016,03,12,04,47,995.06
2016,03,12,04,48,995.06
2016,03,12,04,49,995.06
2016,03,12,04,50,995.06
2016,03,12,04,51,995.06
2016,03,12,04,52,995.06
2016,03,12,04,53,995.06
2016,03,12,04,54,995.06
2016,03,12,04,55,995.06
2016,03,12,04,56,995.06
2016,03,12,04,57,995.06
2016,03,12,04,58,995.06
2016,03,12,04,59,995.06
2016,03,12,05,00,995.26
2016,03,12,05,01,995.26
2016,03,12,05,02,995.26
2016,03,12,05,03,995.26
2016,03,12,05,04,995.26
2016,03,12,05,05,995.26
2016,03,12,05,06,995.26
2016,03,12,05,07,995.26
2016,03,12,05,08,995.26
2016,03,12,05,09,995.26
2016,03,12,05,10,995.26
2016,03,12,05,11,995.26
2016,03,12,05,12,995.26
2016,03,12,05,13,995.26
2016,03,12,05,14,995.26
2016,03,12,05,15,995.67
2016,03,12,05,16,995.67
2016,03,12,05,17,995.67
2016,03,12,05,18,995.67
2016,03,12,05,19,995.67
2016,03,12,05,20,995.67
2016,03,12,05,21,995.67
2016,03,12,05,22,995.67
2016,03,12,05,23,995.67
2016,03,12,05,24,995.67
2016,03,12,05,25,995.67
2016,03,12,05,26,995.67
2016,03,12,05,27,995.67
2016,03,12,05,28,995.67
2016,03,12,05,29,995.67
2016,03,12,05,30,995.56
2016,03,12,05,31,995.56
2016,03,12,05,32,995.56
2016,03,12,05,33,995.56
2016,03,12,05,34,995.56
2016,03,12,05,35,995.56
2016,03,12,05,36,995.56
2016,03,12,05,37,995.56
2016,03,12,05,38,995.56
2016,03,12,05,39,995.56
2016,03,12,05,40,995.56
2016,03,12,05,41,995.56
2016,03,12,05,42,995.56
2016,03,12,05,43,995.56
2016,03,12,05,44,995.56
2016,03,12,05,45,995.16
2016,03,12,05,46,995.16
2016,03,12,05,47,995.16
2016,03,12,05,48,995.16
2016,03,12,05,49,995.16
2016,03,12,05,50,995.16
2016,03,12,05,51,995.16
2016,03,12,05,52,995.16
2016,03,12,05,53,995.16
2016,03,12,05,54,995.16
2016,03,12,05,55,995.16
2016,03,12,05,56,995.16
2016,03,12,05,57,995.16
2016,03,12,05,58,995.16
2016,03,12,05,59,995.16
2016,03,12,06,00,995.12
2016,03,12,06,01,995.12
2016,03,12,06,02,995.12
2016,03,12,06,03,995.12
2016,03,12,06,04,995.12
2016,03,12,06,05,995.12
2016,03,12,06,06,995.12
2016,03,12,06,07,995.12
2016,03,12,06,08,995.12
2016,03,12,06,09,995.12
2016,03,12,06,10,995.12
2016,03,12,06,11,995.12
2016,03,12,06,12,995.12
2016,03,12,06,13,995.12
2016,03,12,06,14,995.12
2016,03,12,06,15,995.70
2016,03,12,06,16,995.70
2016,03,12,06,17,995.70
2016,03,12,06,18,995.70
2016,03,12,06,19,995.70
2016,03,12,06,20,995.70
2016,03,12,06,21,995.70
2016,03,12,06,22,995.70
2016,03,12,06,23,995.70
2016,03,12,06,24,995.70
2016,03,12,06,25,995.70
2016,03,12,06,26,995.70
2016,03,12,06,27,995.70
2016,03,12,06,28,995.70
2016,03,12,06,29,995.70
2016,03,12,06,30,995.67
2016,03,12,06,31,995.67
2016,03,12,06,32,995.67
2016,03,12,06,33,995.67
2016,03,12,06,34,995.67
2016,03,12,06,35,995.67
2016,03,12,06,36,995.67
2016,03,12,06,37,995.67
2016,03,12,06,38,995.67
2016,03,12,06,39,995.67
2016,03,12,06,40,995.67
2016,03,12,06,41,995.67
2016,03,12,06,42,995.67
2016,03,12,06,43,995.67
2016,03,12,06,44,995.67
2016,03,12,06,45,996.14
2016,03,12,06,46,996.14
2016,03,12,06,47,996.14
2016,03,12,06,48,996.14
2016,03,12,06,49,996.14
2016,03,12,06,50,996.14
2016,03,12,06,51,996.14
2016,03,12,06,52,996.14
2016,03,12,06,53,996.14
2016,03,12,06,54,996.14
2016,03,12,06,55,996.14
2016,03,12,06,56,996.14
2016,03,12,06,57,996.14
2016,03,12,06,58,996.14
2016,03,12,06,59,996.14
2016,03,12,07,00,996.58
2016,03,12,07,01,996.58
2016,03,12,07,02,996.58
2016,03,12,07,03,996.58
2016,03,12,07,04,996.58
2016,03,12,07,05,996.58
2016,03,12,07,06,996.58
2016,03,12,07,07,996.58
2016,03,12,07,08,996.58
2016,03,12,07,09,996.58
2016,03,12,07,10,996.58
2016,03,12,07,11,996.58
2016,03,12,07,12,996.58
2016,03,12,07,13,996.58
2016,03,12,07,14,996.58
2016,03,12,07,15,996.75
2016,03,12,07,16,996.75
2016,03,12,07,17,996.75
2016,03,12,07,18,996.75
2016,03,12,07,19,996.75
2016,03,12,07,20,996.75
2016,03,12,07,21,996.75
2016,03,12,07,22,996.75
2016,03,12,07,23,996.75
2016,03,12,07,24,996.75
2016,03,12,07,25,996.75
2016,03,12,07,26,996.75
2016,03,12,07,27,996.75
2016,03,12,07,28,996.75
2016,03,12,07,29,996.75
2016,03,12,07,30,996.99
2016,03,12,07,31,996.99
2016,03,12,07,32,996.99
2016,03,12,07,33,996.99
2016,03,12,07,34,996.99
2016,03,12,07,35,996.99
2016,03,12,07,36,996.99
2016,03,12,07,37,996.99
2016,03,12,07,38,996.99
2016,03,12,07,39,996.99
2016,03,12,07,40,996.99
2016,03,12,07,41,996.99
2016,03,12,07,42,996.99
2016,03,12,07,43,996.99
2016,03,12,07,44,996.99
2016,03,12,07,45,997.19
2016,03,12,07,46,997.19
2016,03,12,07,47,997.19
2016,03,12,07,48,997.19
2016,03,12,07,49,997.19
2016,03,12,07,50,997.19
2016,03,12,07,51,997.19
2016,03,12,07,52,997.19
2016,03,12,07,53,997.19
2016,03,12,07,54,997.19
2016,03,12,07,55,997.19
2016,03,12,07,56,997.19
2016,03,12,07,57,997.19
2016,03,12,07,58,997.19
2016,03,12,07,59,997.19
2016,03,12,08,00,997.26
2016,03,12,08,01,997.26
2016,03,12,08,02,997.26
2016,03,12,08,03,997.26
2016,03,12,08,04,997.26
2016,03,12,08,05,997.26
2016,03,12,08,06,997.26
2016,03,12,08,07,997.26
2016,03,12,08,08,997.26
2016,03,12,08,09,997.26
2016,03,12,08,10,997.26
2016,03,12,08,11,997.26
2016,03,12,08,12,997.26
2016,03,12,08,13,997.26
2016,03,12,08,14,997.26
2016,03,12,08,15,997.71
2016,03,12,08,16,997.73
2016,03,12,08,17,997.73
2016,03,12,08,18,997.73
2016,03,12,08,19,997.73
2016,03,12,08,20,997.73
2016,03,12,08,21,997.73
2016,03,12,08,22,997.73
2016,03,12,08,23,997.73
2016,03,12,08,24,997.73
2016,03,12,08,25,997.73
2016,03,12,08,26,997.73
2016,03,12,08,27,997.73
2016,03,12,08,28,997.73
2016,03,12,08,29,997.73
2016,03,12,08,30,997.66
2016,03,12,08,31,997.66
2016,03,12,08,32,997.66
2016,03,12,08,33,997.66
2016,03,12,08,34,997.66
2016,03,12,08,35,997.66
2016,03,12,08,36,997.66
2016,03,12,08,37,997.66
2016,03,12,08,38,997.66
2016,03,12,08,39,997.66
2016,03,12,08,40,997.66
2016,03,12,08,41,997.66
2016,03,12,08,42,997.66
2016,03,12,08,43,997.66
2016,03,12,08,44,997.66
2016,03,12,08,45,997.77
2016,03,12,08,46,997.77
2016,03,12,08,47,997.77
2016,03,12,08,48,997.77
2016,03,12,08,49,997.77
2016,03,12,08,50,997.77
2016,03,12,08,51,997.77
2016,03,12,08,52,997.77
2016,03,12,08,53,997.77
2016,03,12,08,54,997.77
2016,03,12,08,55,997.77
2016,03,12,08,56,997.77
2016,03,12,08,57,997.77
2016,03,12,08,58,997.77
2016,03,12,08,59,997.77
2016,03,12,09,00,997.77
2016,03,12,09,01,997.77
2016,03,12,09,02,997.77
2016,03,12,09,03,997.77
2016,03,12,09,04,997.77
2016,03,12,09,05,997.77
2016,03,12,09,06,997.77
2016,03,12,09,07,997.77
2016,03,12,09,08,997.77
2016,03,12,09,09,997.77
2016,03,12,09,10,997.77
2016,03,12,09,11,997.77
2016,03,12,09,12,997.77
2016,03,12,09,13,997.77
2016,03,12,09,14,997.77
2016,03,12,09,15,997.87
2016,03,12,09,16,997.87
2016,03,12,09,17,997.87
2016,03,12,09,18,997.87
2016,03,12,09,19,997.87
2016,03,12,09,20,997.87
2016,03,12,09,21,997.87
2016,03,12,09,22,997.87
2016,03,12,09,23,997.87
2016,03,12,09,24,997.87
2016,03,12,09,25,997.87
2016,03,12,09,26,997.87
2016,03,12,09,27,997.87
2016,03,12,09,28,997.87
2016,03,12,09,29,997.87
2016,03,12,09,30,997.87
2016,03,12,09,31,997.87
2016,03,12,09,32,997.87
2016,03,12,09,33,997.87
2016,03,12,09,34,997.87
2016,03,12,09,35,997.87
2016,03,12,09,36,997.87
2016,03,12,09,37,997.87
2016,03,12,09,38,997.87
2016,03,12,09,39,997.87
2016,03,12,09,40,997.87
2016,03,12,09,41,997.87
2016,03,12,09,42,997.87
2016,03,12,09,43,997.87
2016,03,12,09,44,997.87
2016,03,12,09,45,998.14
2016,03,12,09,46,998.14
2016,03,12,09,47,998.14
2016,03,12,09,48,998.14
2016,03,12,09,49,998.14
2016,03,12,09,50,998.14
2016,03,12,09,51,998.14
2016,03,12,09,52,998.14
2016,03,12,09,53,998.14
2016,03,12,09,54,998.14
2016,03,12,09,55,998.14
2016,03,12,09,56,998.14
2016,03,12,09,57,998.14
2016,03,12,09,58,998.14
2016,03,12,09,59,998.14
2016,03,12,10,00,998.27
2016,03,12,10,01,998.27
2016,03,12,10,02,998.27
2016,03,12,10,03,998.27
2016,03,12,10,04,998.27
2016,03,12,10,05,998.27
2016,03,12,10,06,998.27
2016,03,12,10,07,998.27
2016,03,12,10,08,998.27
2016,03,12,10,09,998.27
2016,03,12,10,10,998.27
2016,03,12,10,11,998.27
2016,03,12,10,12,998.27
2016,03,12,10,13,998.27
2016,03,12,10,14,998.27
2016,03,12,10,15,998.54
2016,03,12,10,16,998.54
2016,03,12,10,17,998.54
2016,03,12,10,18,998.54
2016,03,12,10,19,998.54
2016,03,12,10,20,998.54
2016,03,12,10,21,998.54
2016,03,12,10,22,998.54
2016,03,12,10,23,998.54
2016,03,12,10,24,998.54
2016,03,12,10,25,998.54
2016,03,12,10,26,998.54
2016,03,12,10,27,998.54
2016,03,12,10,28,998.54
2016,03,12,10,29,998.54
2016,03,12,10,30,998.74
2016,03,12,10,31,998.75
2016,03,12,10,32,998.75
2016,03,12,10,33,998.75
2016,03,12,10,34,998.75
2016,03,12,10,35,998.75
2016,03,12,10,36,998.75
2016,03,12,10,37,998.75
2016,03,12,10,38,998.75
2016,03,12,10,39,998.75
2016,03,12,10,40,998.75
2016,03,12,10,41,998.75
2016,03,12,10,42,998.75
2016,03,12,10,43,998.75
2016,03,12,10,44,998.75
2016,03,12,10,45,998.82
2016,03,12,10,46,998.82
2016,03,12,10,47,998.82
2016,03,12,10,48,998.82
2016,03,12,10,49,998.82
2016,03,12,10,50,998.82
2016,03,12,10,51,998.82
2016,03,12,10,52,998.82
2016,03,12,10,53,998.82
2016,03,12,10,54,998.82
2016,03,12,10,55,998.82
2016,03,12,10,56,998.82
2016,03,12,10,57,998.82
2016,03,12,10,58,998.82
2016,03,12,10,59,998.82
2016,03,12,11,00,999.29
2016,03,12,11,01,999.29
2016,03,12,11,02,999.29
2016,03,12,11,03,999.29
2016,03,12,11,04,999.29
2016,03,12,11,05,999.29
2016,03,12,11,06,999.29
2016,03,12,11,07,999.29
2016,03,12,11,08,999.29
2016,03,12,11,09,999.29
2016,03,12,11,10,999.29
2016,03,12,11,11,999.29
2016,03,12,11,12,999.29
2016,03,12,11,13,999.29
2016,03,12,11,14,999.29
2016,03,12,11,15,999.53
2016,03,12,11,16,999.53
2016,03,12,11,17,999.53
2016,03,12,11,18,999.53
2016,03,12,11,19,999.53
2016,03,12,11,20,999.53
2016,03,12,11,21,999.53
2016,03,12,11,22,999.53
2016,03,12,11,23,999.53
2016,03,12,11,24,999.53
2016,03,12,11,25,999.53
2016,03,12,11,26,999.53
2016,03,12,11,27,999.53
2016,03,12,11,28,999.53
2016,03,12,11,29,999.53
2016,03,12,11,30,999.87
2016,03,12,11,31,999.87
2016,03,12,11,32,999.87
2016,03,12,11,33,999.87
2016,03,12,11,34,999.87
2016,03,12,11,35,999.87
2016,03,12,11,36,999.87
2016,03,12,11,37,999.87
2016,03,12,11,38,999.87
2016,03,12,11,39,999.87
2016,03,12,11,40,999.87
2016,03,12,11,41,999.87
2016,03,12,11,42,999.87
2016,03,12,11,43,999.87
2016,03,12,11,44,999.87
2016,03,12,11,45,999.90
2016,03,12,11,46,999.90
2016,03,12,11,47,999.90
2016,03,12,11,48,999.90
2016,03,12,11,49,999.90
2016,03,12,11,50,999.90
2016,03,12,11,51,999.90
2016,03,12,11,52,999.90
2016,03,12,11,53,999.90
2016,03,12,11,54,999.90
2016,03,12,11,55,999.90
2016,03,12,11,56,999.90
2016,03,12,11,57,999.90
2016,03,12,11,58,999.90
2016,03,12,11,59,999.90
2016,03,12,12,00,1000.23
2016,03,12,12,01,1000.24
2016,03,12,12,02,1000.24
2016,03,12,12,03,1000.24
2016,03,12,12,04,1000.24
2016,03,12,12,05,1000.24
2016,03,12,12,06,1000.24
2016,03,12,12,07,1000.24
2016,03,12,12,08,1000.24
2016,03,12,12,09,1000.24
2016,03,12,12,10,1000.24
2016,03,12,12,11,1000.24
2016,03,12,12,12,1000.24
2016,03,12,12,13,1000.24
2016,03,12,12,14,1000.24
2016,03,12,12,15,1000.31
2016,03,12,12,16,1000.31
2016,03,12,12,17,1000.31
2016,03,12,12,18,1000.31
2016,03,12,12,19,1000.31
2016,03,12,12,20,1000.31
2016,03,12,12,21,1000.31
2016,03,12,12,22,1000.31
2016,03,12,12,23,1000.31
2016,03,12,12,24,1000.31
2016,03,12,12,25,1000.31
2016,03,12,12,26,1000.31
2016,03,12,12,27,1000.31
2016,03,12,12,28,1000.31
2016,03,12,12,29,1000.31
2016,03,12,12,30,1000.24
2016,03,12,12,31,1000.24
2016,03,12,12,32,1000.24
2016,03,12,12,33,1000.24
2016,03,12,12,34,1000.24
2016,03,12,12,35,1000.24
2016,03,12,12,36,1000.24
2016,03,12,12,37,1000.24
2016,03,12,12,38,1000.24
2016,03,12,12,39,1000.24
2016,03,12,12,40,1000.24
2016,03,12,12,41,1000.24
2016,03,12,12,42,1000.24
2016,03,12,12,43,1000.24
2016,03,12,12,44,1000.24
2016,03,12,12,45,1000.24
2016,03,12,12,46,1000.24
2016,03,12,12,47,1000.24
2016,03,12,12,48,1000.24
2016,03,12,12,49,1000.24
2016,03,12,12,50,1000.24
2016,03,12,12,51,1000.24
2016,03,12,12,52,1000.24
2016,03,12,12,53,1000.24
2016,03,12,12,54,1000.24
2016,03,12,12,55,1000.24
2016,03,12,12,56,1000.24
2016,03,12,12,57,1000.24
2016,03,12,12,58,1000.24
2016,03,12,12,59,1000.24
2016,03,12,13,00,1000.34
2016,03,12,13,01,1000.34
2016,03,12,13,02,1000.34
2016,03,12,13,03,1000.34
2016,03,12,13,04,1000.34
2016,03,12,13,05,1000.34
2016,03,12,13,06,1000.34
2016,03,12,13,07,1000.34
2016,03,12,13,08,1000.34
2016,03,12,13,09,1000.34
2016,03,12,13,10,1000.34
2016,03,12,13,11,1000.34
2016,03,12,13,12,1000.34
2016,03,12,13,13,1000.34
2016,03,12,13,14,1000.34
2016,03,12,13,15,1000.37
2016,03,12,13,16,1000.37
2016,03,12,13,17,1000.37
2016,03,12,13,18,1000.37
2016,03,12,13,19,1000.37
2016,03,12,13,20,1000.37
2016,03,12,13,21,1000.37
2016,03,12,13,22,1000.37
2016,03,12,13,23,1000.37
2016,03,12,13,24,1000.37
2016,03,12,13,25,1000.37
2016,03,12,13,26,1000.37
2016,03,12,13,27,1000.37
2016,03,12,13,28,1000.37
2016,03,12,13,29,1000.37
2016,03,12,13,30,1000.27
2016,03,12,13,31,1000.27
2016,03,12,13,32,1000.27
2016,03,12,13,33,1000.27
2016,03,12,13,34,1000.27
2016,03,12,13,35,1000.27
2016,03,12,13,36,1000.27
2016,03,12,13,37,1000.27
2016,03,12,13,38,1000.27
2016,03,12,13,39,1000.27
2016,03,12,13,40,1000.27
2016,03,12,13,41,1000.27
2016,03,12,13,42,1000.27
2016,03,12,13,43,1000.27
2016,03,12,13,44,1000.27
2016,03,12,13,45,1000.37
2016,03,12,13,46,1000.37
2016,03,12,13,47,1000.37
2016,03,12,13,48,1000.37
2016,03,12,13,49,1000.37
2016,03,12,13,50,1000.37
2016,03,12,13,51,1000.37
2016,03,12,13,52,1000.37
2016,03,12,13,53,1000.37
2016,03,12,13,54,1000.37
2016,03,12,13,55,1000.37
2016,03,12,13,56,1000.37
2016,03,12,13,57,1000.37
2016,03,12,13,58,1000.37
2016,03,12,13,59,1000.37
2016,03,12,14,00,1000.34
2016,03,12,14,01,1000.34
2016,03,12,14,02,1000.34
2016,03,12,14,03,1000.34
2016,03,12,14,04,1000.34
2016,03,12,14,05,1000.34
2016,03,12,14,06,1000.34
2016,03,12,14,07,1000.34
2016,03,12,14,08,1000.34
2016,03,12,14,09,1000.34
2016,03,12,14,10,1000.34
2016,03,12,14,11,1000.34
2016,03,12,14,12,1000.34
2016,03,12,14,13,1000.34
2016,03,12,14,14,1000.34
2016,03,12,14,15,1000.41
2016,03,12,14,16,1000.41
2016,03,12,14,17,1000.41
2016,03,12,14,18,1000.41
2016,03,12,14,19,1000.41
2016,03,12,14,20,1000.41
2016,03,12,14,21,1000.41
2016,03,12,14,22,1000.41
2016,03,12,14,23,1000.41
2016,03,12,14,24,1000.41
2016,03,12,14,25,1000.41
2016,03,12,14,26,1000.41
2016,03,12,14,27,1000.41
2016,03,12,14,28,1000.41
2016,03,12,14,29,1000.41
2016,03,12,14,30,1000.67
2016,03,12,14,31,1000.68
2016,03,12,14,32,1000.68
2016,03,12,14,33,1000.68
2016,03,12,14,34,1000.68
2016,03,12,14,35,1000.68
2016,03,12,14,36,1000.68
2016,03,12,14,37,1000.68
2016,03,12,14,38,1000.68
2016,03,12,14,39,1000.68
2016,03,12,14,40,1000.68
2016,03,12,14,41,1000.68
2016,03,12,14,42,1000.68
2016,03,12,14,43,1000.68
2016,03,12,14,44,1000.68
2016,03,12,14,45,1000.71
2016,03,12,14,46,1000.71
2016,03,12,14,47,1000.71
2016,03,12,14,48,1000.71
2016,03,12,14,49,1000.71
2016,03,12,14,50,1000.71
2016,03,12,14,51,1000.71
2016,03,12,14,52,1000.71
2016,03,12,14,53,1000.71
2016,03,12,14,54,1000.71
2016,03,12,14,55,1000.71
2016,03,12,14,56,1000.71
2016,03,12,14,57,1000.71
2016,03,12,14,58,1000.71
2016,03,12,14,59,1000.71
2016,03,12,15,00,1000.88
2016,03,12,15,01,1000.88
2016,03,12,15,02,1000.88
2016,03,12,15,03,1000.88
2016,03,12,15,04,1000.88
2016,03,12,15,05,1000.88
2016,03,12,15,06,1000.88
2016,03,12,15,07,1000.88
2016,03,12,15,08,1000.88
2016,03,12,15,09,1000.88
2016,03,12,15,10,1000.88
2016,03,12,15,11,1000.88
2016,03,12,15,12,1000.88
2016,03,12,15,13,1000.88
2016,03,12,15,14,1000.88
2016,03,12,15,15,1000.98
2016,03,12,15,16,1000.98
2016,03,12,15,17,1000.98
2016,03,12,15,18,1000.98
2016,03,12,15,19,1000.98
2016,03,12,15,20,1000.98
2016,03,12,15,21,1000.98
2016,03,12,15,22,1000.98
2016,03,12,15,23,1000.98
2016,03,12,15,24,1000.98
2016,03,12,15,25,1000.98
2016,03,12,15,26,1000.98
2016,03,12,15,27,1000.98
2016,03,12,15,28,1000.98
2016,03,12,15,29,1000.98
2016,03,12,15,30,1001.34
2016,03,12,15,31,1001.36
2016,03,12,15,32,1001.36
2016,03,12,15,33,1001.36
2016,03,12,15,34,1001.36
2016,03,12,15,35,1001.36
2016,03,12,15,36,1001.36
2016,03,12,15,37,1001.36
2016,03,12,15,38,1001.36
2016,03,12,15,39,1001.36
2016,03,12,15,40,1001.36
2016,03,12,15,41,1001.36
2016,03,12,15,42,1001.36
2016,03,12,15,43,1001.36
2016,03,12,15,44,1001.36
2016,03,12,15,45,1001.55
2016,03,12,15,46,1001.56
2016,03,12,15,47,1001.56
2016,03,12,15,48,1001.56
2016,03,12,15,49,1001.56
2016,03,12,15,50,1001.56
2016,03,12,15,51,1001.56
2016,03,12,15,52,1001.56
2016,03,12,15,53,1001.56
2016,03,12,15,54,1001.56
2016,03,12,15,55,1001.56
2016,03,12,15,56,1001.56
2016,03,12,15,57,1001.56
2016,03,12,15,58,1001.56
2016,03,12,15,59,1001.56
2016,03,12,16,00,1001.49
2016,03,12,16,01,1001.49
2016,03,12,16,02,1001.49
2016,03,12,16,03,1001.49
2016,03,12,16,04,1001.49
2016,03,12,16,05,1001.49
2016,03,12,16,06,1001.49
2016,03,12,16,07,1001.49
2016,03,12,16,08,1001.49
2016,03,12,16,09,1001.49
2016,03,12,16,10,1001.49
2016,03,12,16,11,1001.49
2016,03,12,16,12,1001.49
2016,03,12,16,13,1001.49
2016,03,12,16,14,1001.49
2016,03,12,16,15,1001.62
2016,03,12,16,16,1001.63
2016,03,12,16,17,1001.63
2016,03,12,16,18,1001.63
2016,03,12,16,19,1001.63
2016,03,12,16,20,1001.63
2016,03,12,16,21,1001.63
2016,03,12,16,22,1001.63
2016,03,12,16,23,1001.63
2016,03,12,16,24,1001.63
2016,03,12,16,25,1001.63